{"data":{"norad_id":56536,"epoch":"2026-05-25T01:23:08.484576Z","epoch_age_seconds":73122,"freshness":"FRESH","line1":"1 56536U 23065AK  26145.05773709  .00000302  00000+0  20485-4 0  9994","line2":"2 56536  43.0018 155.5387 0001124 274.5681  85.5042 15.27574573168115","mean_motion":15.27574573,"eccentricity":0.0001124,"inclination_deg":43.0018,"raan_deg":155.5387,"arg_perigee_deg":274.5681,"mean_anomaly_deg":85.5042,"bstar":2.0485e-5,"rev_number":16811,"period_min":94.267083614254,"perigee_km":482.29414733437,"apogee_km":483.83654562186,"semimajor_km":6861.2023464781,"source":"CELESTRAK","updated_at":"2026-05-25T13:38:18.113339Z"}}